Regional Weather Roundup
Issued by NWS

Home | Current Version | Previous Version | Text Only | Print | Product List | Glossary Off
Versions: 1 2 3 4 5 6 7 8 9 10 11 12 13 14 15 16 17 18 19 20 21 22 23 24 25 26 27 28 29 30 31 32 33 34 35 36 37 38 39 40 41 42 43 44 45 46 47 48 49 50

000
ASUS43 KFSD 190810
RWRSD

WEATHER ROUNDUP FOR SOUTH DAKOTA
NATIONAL WEATHER SERVICE SIOUX FALLS SD
200 AM CST THU JAN 19 2017

NOTE: "FAIR" INDICATES FEW OR NO CLOUDS BELOW 12,000 FEET WITH NO
SIGNIFICANT WEATHER AND/OR OBSTRUCTIONS TO VISIBILITY.


SDZ001>005-009-010-012>017-190900-
NORTHWEST AND NORTH CENTRAL SOUTH DAKOTA

CITY           SKY/WX    TMP DP  RH WIND       PRES   REMARKS
BUFFALO          N/A     31  19  61 CALM      29.48S
FAITH            N/A     22  19  89 SW5       29.56S WCI  16
MOBRIDGE       CLOUDY    16  11  80 S5        29.56F WCI   9
$$

SDZ012>016-024>037-041>051-057-063-072>074-190900-
SOUTHWEST AND SOUTH CENTRAL SOUTH DAKOTA

CITY           SKY/WX    TMP DP  RH WIND       PRES   REMARKS
RAPID CTY ARPT CLOUDY    34  23  64 W7        29.56S WCI  28
PIERRE         CLOUDY    18  15  88 SE3       29.59S
CUSTER         CLOUDY    41  12  30 NW6       29.60S
ELLSWORTH AFB  CLOUDY    36  23  60 N15       29.55F
PHILIP         CLOUDY    15  13  91 W10       29.59R WCI   2
PINE RIDGE     CLOUDY    28  21  75 SW7       29.61S WCI  21
SPEARFISH      FAIR      30  23  74 CALM      29.56F
WINNER         FAIR      36  30  79 SW8       29.63S
$$

SDZ004>011-016>023-039-040-190900-
NORTHEAST SOUTH DAKOTA

CITY           SKY/WX    TMP DP  RH WIND       PRES   REMARKS
ABERDEEN       FOG       18  15  88 S3        29.64R VSB 1/4
WATERTOWN      CLOUDY    27  26  96 S13       29.67S FOG     WCI  16
BROOKINGS      CLOUDY    33  32  96 S9        29.71S WCI  25
SISSETON         N/A     25  24  96 S8        29.64F WCI  16
$$

SDZ017-020-022-023-036>040-048>070-190900-
SOUTHEAST SOUTH DAKOTA

CITY           SKY/WX    TMP DP  RH WIND       PRES   REMARKS
SIOUX FALLS    CLEAR     36  35  96 S10       29.74F
HURON          CLOUDY    32  31  96 S13       29.65F WCI  22
CHAMBERLAIN    CLOUDY    35  31  88 S8        29.64S WCI  28
MITCHELL       CLOUDY    32  31  96 SE8       29.70S WCI  25
YANKTON        CLEAR     37  30  75 SE6       29.73S
$$

ABBREVIATIONS USED IN REMARKS
   TC - TEMPERATURE IN CELSIUS
  WCI - WIND CHILL INDEX
   HX - HEAT INDEX
  VSB - VISIBILITY





USA.gov is the U.S. government's official web portal to all federal, state and local government web resources and services.